User: anonymous   Login
Location: Unspecified
(0.0000°N, 0.0000°E)
Time: 09:32:29
(UTC+00:00)
Language:

Oceansat - Orbit

View from above orbital plane
View from above orbital plane
View from above satellite
View from above satellite

Ground track
Ground track

The orbit data is extracted from the following two-line orbital elements,

1 25758U 99029C   18018.78353493  .00000062  00000-0  25667-4 0  9994
2 25758  98.1393  96.0167 0002430 341.9218  18.1891 14.52398844988021
Epoch (UTC): 18 January 2018 18:48:17
Eccentricity: 0.0002430
inclination: 98.1393°
perigee height: 716 km
apogee height: 719 km
right ascension of ascending node: 96.0167°
argument of perigee: 341.9218°
revolutions per day: 14.52398844
mean anomaly at epoch: 18.1891°
orbit number at epoch: 98802

The dashed part of the orbit path shows where the satellite is in the earth's shadow,  

DLR